Weather History for Wahoo, NE

Change the Weather History Date:

Tuesday, March 5, 2013

  Actual Average Record
Temperature  
Mean Temperature 28 °F -  
Max Temperature 33 °F 44 °F 70 °F (1991)
Min Temperature 23 °F 23 °F 0 °F (1978)
Degree Days  
Heating Degree Days 37    
Moisture  
Dew Point 19 °F    
Average Humidity 69    
Maximum Humidity 83    
Minimum Humidity 58    
Precipitation  
Precipitation 0.00 in - - ()
Sea Level Pressure  
Sea Level Pressure 30.20 in    
Wind  
Wind Speed 20 mph (NW)    
Max Wind Speed 34 mph    
Max Gust Speed 45 mph    
Visibility 10 miles    
Events      
Averages and records for this station are not official NWS values.
T = Trace of Precipitation, MM = Missing Value Source: NWS Daily Summary

Daily Weather History Graph

Daily Weather History Graph

Search for Another Location

Airport:

Trip Planner

Search our weather history database for the weather conditions in past years. The results will help you decide how hot, cold, wet, or windy it might be!

Date:

Astronomy

Mar. 05, 2013 Rise Set
Actual Time 6:54 AM CST 6:22 PM CST
Civil Twilight 6:26 AM CST 6:49 PM CST
Nautical Twilight 5:54 AM CST 7:21 PM CST
Astronomical Twilight 5:22 AM CST 7:53 PM CST
Moon 2:09 AM CST (3/5) 11:59 AM CST (3/5)
Length of Visible Light 12h 23m
Length of Day
11h 28m
Last Quarter, 40% of the Moon is Illuminated
Mar 5
Last Quarter
Mar 11
New
Mar 19
First Quarter
Mar 27
Full
Apr 2
Last Quarter

Hourly Weather History & Observations

Time (CST) Temp. Windchill Dew Point Humidity Pressure Visibility Wind Dir Wind Speed Gust Speed Precip Events Conditions
12:15 AM 31.1 °F 18.6 °F 19.2 °F 61% 30.03 in 10.0 mi NW 20.7 mph 27.6 mph N/A   Overcast
12:35 AM 30.7 °F 19.2 °F 19.4 °F 63% 30.06 in 10.0 mi WNW 17.3 mph 25.3 mph N/A   Overcast
12:55 AM 29.7 °F 17.4 °F 19.8 °F 67% 30.05 in 10.0 mi NW 18.4 mph 24.2 mph N/A   Overcast
1:15 AM 28.9 °F 17.7 °F 19.6 °F 68% 30.06 in 10.0 mi NW 15.0 mph 25.3 mph N/A   Mostly Cloudy
1:35 AM 28.4 °F 17.0 °F 18.9 °F 67% 30.07 in 10.0 mi NW 15.0 mph 21.9 mph N/A   Mostly Cloudy
1:55 AM 28.0 °F 16.1 °F 18.7 °F 68% 30.07 in 10.0 mi WNW 16.1 mph 25.3 mph N/A   Scattered Clouds
2:15 AM 27.5 °F 16.3 °F 18.1 °F 68% 30.07 in 10.0 mi WNW 13.8 mph 21.9 mph N/A   Clear
2:35 AM 27.5 °F 15.4 °F 17.6 °F 66% 30.07 in 10.0 mi WNW 16.1 mph 26.5 mph N/A   Clear
2:55 AM 27.0 °F 15.2 °F 17.2 °F 67% 30.07 in 10.0 mi NW 15.0 mph 24.2 mph N/A   Clear
3:15 AM 26.6 °F 15.2 °F 17.4 °F 68% 30.07 in 10.0 mi NW 13.8 mph 24.2 mph N/A   Mostly Cloudy
3:35 AM 25.9 °F 13.8 °F 17.4 °F 70% 30.07 in 10.0 mi NW 15.0 mph 24.2 mph N/A   Scattered Clouds
3:55 AM 25.5 °F 12.9 °F 16.7 °F 69% 30.07 in 10.0 mi WNW 16.1 mph 21.9 mph N/A   Clear
4:15 AM 25.5 °F 12.9 °F 16.3 °F 68% 30.08 in 10.0 mi WNW 16.1 mph 20.7 mph N/A   Clear
4:35 AM 25.5 °F 12.0 °F 16.0 °F 67% 30.09 in 10.0 mi WNW 18.4 mph 26.5 mph N/A   Clear
4:55 AM 25.7 °F 12.3 °F 15.8 °F 66% 30.09 in 10.0 mi WNW 18.4 mph 26.5 mph N/A   Mostly Cloudy
5:15 AM 25.2 °F 12.9 °F 16.0 °F 68% 30.09 in 10.0 mi WNW 15.0 mph 20.7 mph N/A   Mostly Cloudy
5:35 AM 25.7 °F 12.3 °F 16.7 °F 69% 30.09 in 10.0 mi WNW 18.4 mph 23.0 mph N/A   Overcast
5:55 AM 26.2 °F 12.2 °F 17.4 °F 69% 30.09 in 10.0 mi WNW 20.7 mph 26.5 mph N/A   Overcast
6:15 AM 26.6 °F 13.4 °F 18.1 °F 70% 30.10 in 10.0 mi WNW 18.4 mph 24.2 mph N/A   Overcast
6:35 AM 27.1 °F 13.8 °F 18.3 °F 69% 30.10 in 10.0 mi WNW 19.6 mph 29.9 mph N/A   Overcast
7:15 AM 27.3 °F 12.1 °F 18.7 °F 70% 30.10 in 10.0 mi NW 26.5 mph 36.8 mph N/A   Overcast
7:35 AM 27.5 °F 12.3 °F 19.2 °F 71% 30.10 in 10.0 mi WNW 26.5 mph 34.5 mph N/A   Overcast
7:55 AM 27.5 °F 12.0 °F 19.2 °F 71% 30.11 in 10.0 mi WNW 27.6 mph 36.8 mph N/A   Overcast
8:15 AM 27.9 °F 12.5 °F 19.0 °F 69% 30.12 in 10.0 mi NW 27.6 mph 35.7 mph N/A   Overcast
8:35 AM 28.0 °F 13.9 °F 19.2 °F 70% 30.13 in 10.0 mi NW 23.0 mph 35.7 mph N/A   Overcast
8:55 AM 28.6 °F 14.3 °F 19.8 °F 70% 30.14 in 10.0 mi NW 24.2 mph 36.8 mph N/A   Overcast
9:15 AM 29.3 °F 15.0 °F 20.1 °F 69% 30.14 in 10.0 mi NW 25.3 mph 33.4 mph N/A   Mostly Cloudy
9:35 AM 29.1 °F 14.5 °F 20.3 °F 70% 30.15 in 10.0 mi NW 26.5 mph 38.0 mph N/A   Overcast
9:55 AM 29.1 °F 14.5 °F 20.1 °F 69% 30.16 in 10.0 mi NW 26.5 mph 38.0 mph N/A   Overcast
10:15 AM 29.1 °F 13.5 °F 20.3 °F 70% 30.17 in 10.0 mi NW 31.1 mph 39.1 mph N/A   Overcast
10:35 AM 29.3 °F 13.7 °F 20.8 °F 71% 30.16 in 10.0 mi NW 31.1 mph 42.6 mph N/A   Overcast
10:55 AM 30.2 °F 15.4 °F 21.0 °F 69% 30.17 in 10.0 mi NW 28.8 mph 39.1 mph N/A   Overcast
11:15 AM 30.2 °F 14.5 °F 20.5 °F 67% 30.17 in 10.0 mi NW 33.4 mph 40.3 mph N/A   Overcast
11:35 AM 30.2 °F 14.3 °F 20.3 °F 67% 30.19 in 10.0 mi NW 34.5 mph 44.9 mph N/A   Overcast
11:55 AM 30.7 °F 15.7 °F 20.7 °F 66% 30.19 in 10.0 mi NW 31.1 mph 38.0 mph N/A   Overcast
12:15 PM 30.7 °F 16.4 °F 20.3 °F 65% 30.21 in 10.0 mi NW 27.6 mph 38.0 mph N/A   Overcast
12:35 PM 31.1 °F 16.9 °F 20.3 °F 64% 30.21 in 10.0 mi NW 27.6 mph 39.1 mph N/A   Overcast
12:55 PM 30.7 °F 16.4 °F 20.8 °F 67% 30.22 in 10.0 mi NW 27.6 mph 35.7 mph N/A   Overcast
1:15 PM 31.1 °F 18.0 °F 20.1 °F 64% 30.22 in 10.0 mi NW 23.0 mph 33.4 mph N/A   Overcast
1:35 PM 31.5 °F 17.6 °F 19.9 °F 62% 30.22 in 10.0 mi NW 26.5 mph 35.7 mph N/A   Overcast
1:55 PM 32.2 °F 18.6 °F 19.9 °F 61% 30.22 in 10.0 mi NW 26.5 mph 38.0 mph N/A   Overcast
2:15 PM 33.4 °F 19.8 °F 19.9 °F 58% 30.22 in 10.0 mi NNW 28.8 mph 38.0 mph N/A   Overcast
2:35 PM 33.1 °F 20.1 °F 20.7 °F 60% 30.23 in 10.0 mi NNW 25.3 mph 34.5 mph N/A   Overcast
2:55 PM 33.4 °F 20.3 °F 20.1 °F 58% 30.24 in 10.0 mi NW 26.5 mph 35.7 mph N/A   Overcast
3:15 PM 32.7 °F 20.4 °F 19.8 °F 59% 30.24 in 10.0 mi NNW 21.9 mph 32.2 mph N/A   Mostly Cloudy
3:35 PM 32.9 °F 19.3 °F 19.6 °F 58% 30.25 in 10.0 mi NNW 27.6 mph 33.4 mph N/A   Scattered Clouds
3:55 PM 32.2 °F 18.6 °F 19.4 °F 59% 30.26 in 10.0 mi NNW 26.5 mph 36.8 mph N/A   Scattered Clouds
4:15 PM 32.9 °F 18.6 °F 19.6 °F 58% 30.26 in 10.0 mi NNW 31.1 mph 36.8 mph N/A   Mostly Cloudy
4:35 PM 32.2 °F 19.7 °F 18.7 °F 58% 30.27 in 10.0 mi NNW 21.9 mph 33.4 mph N/A   Scattered Clouds
4:55 PM 32.9 °F 20.4 °F 19.6 °F 58% 30.27 in 10.0 mi NNW 23.0 mph 32.2 mph N/A   Mostly Cloudy
5:15 PM 32.4 °F 19.4 °F 20.1 °F 61% 30.28 in 10.0 mi NNW 24.2 mph 29.9 mph N/A   Scattered Clouds
5:35 PM 31.8 °F 18.7 °F 19.2 °F 60% 30.29 in 10.0 mi NNW 24.2 mph 33.4 mph N/A   Scattered Clouds
5:55 PM 30.7 °F 17.5 °F 20.1 °F 65% 30.30 in 10.0 mi NNW 23.0 mph 28.8 mph N/A   Clear
6:15 PM 30.0 °F 18.3 °F 20.3 °F 67% 30.31 in 10.0 mi NNW 17.3 mph - N/A   Clear
6:35 PM 28.8 °F 17.0 °F 20.5 °F 71% 30.31 in 10.0 mi North 16.1 mph 20.7 mph N/A   Clear
6:55 PM 28.2 °F 15.9 °F 20.3 °F 72% 30.32 in 10.0 mi NNW 17.3 mph - N/A   Clear
7:15 PM 27.1 °F 15.9 °F 20.3 °F 75% 30.33 in 10.0 mi NNW 13.8 mph - N/A   Clear
7:35 PM 26.6 °F 15.7 °F 20.3 °F 77% 30.33 in 10.0 mi NNW 12.7 mph - N/A   Clear
7:55 PM 26.2 °F 13.8 °F 20.1 °F 78% 30.33 in 10.0 mi NNW 16.1 mph - N/A   Clear
8:15 PM 25.7 °F 14.0 °F 19.6 °F 78% 30.34 in 10.0 mi NNW 13.8 mph 19.6 mph N/A   Clear
8:35 PM 24.8 °F 14.0 °F 19.4 °F 80% 30.34 in 10.0 mi NNW 11.5 mph - N/A   Clear
8:55 PM 24.6 °F 13.8 °F 19.4 °F 81% 30.35 in 10.0 mi NNW 11.5 mph - N/A   Clear
9:15 PM 24.3 °F 13.9 °F 19.4 °F 82% 30.36 in 10.0 mi North 10.4 mph - N/A   Scattered Clouds
9:35 PM 24.4 °F 14.2 °F 19.9 °F 83% 30.36 in 10.0 mi North 10.4 mph - N/A   Mostly Cloudy
9:55 PM 23.9 °F 12.3 °F 19.0 °F 82% 30.37 in 10.0 mi North 12.7 mph - N/A   Mostly Cloudy
10:15 PM 23.5 °F 11.8 °F 18.3 °F 80% 30.37 in 10.0 mi North 12.7 mph - N/A   Scattered Clouds
10:35 PM 24.3 °F 13.9 °F 18.7 °F 79% 30.38 in 10.0 mi NNW 10.4 mph - N/A   Mostly Cloudy
10:55 PM 24.8 °F 14.0 °F 19.2 °F 79% 30.39 in 10.0 mi NNW 11.5 mph - N/A   Overcast
11:15 PM 24.3 °F 12.7 °F 17.8 °F 76% 30.39 in 10.0 mi NNW 12.7 mph - N/A   Overcast
11:35 PM 24.3 °F 13.3 °F 17.8 °F 76% 30.39 in 10.0 mi NNW 11.5 mph - N/A   Overcast
11:55 PM 24.3 °F 13.9 °F 18.0 °F 77% 30.39 in 10.0 mi NNW 10.4 mph - N/A   Overcast